Location: B
(0.0000°N, 0.0000°E)
Time: 15:01:37
(UTC+02:00)

Amateur Radio Satellites - All Passes

Search period start: 26 May 2017 14:31
Search period end: 27 May 2017 14:31
Location: B, 0.0000°N, 0.0000°E

Satellite Date Start Highest point End Downlink Frequencies (MHz)
Time Altitude Azimuth
UKube-1 26 May 14:54:03 14:58:20 72° 102° (ESE) 15:02:38 .
50 SAT 26 May 14:55:57 14:58:44 24° 281° (WNW) 15:01:32 437.505
DX 1 26 May 15:00:43 15:04:55 53° 282° (WNW) 15:09:09 434.975-435.025
Gurwin Techsat 1B 26 May 15:04:13 15:09:06 38° 78° (ENE) 15:13:59 435.225
BUGSAT 1 26 May 15:12:01 15:14:36 17° 258° (WSW) 15:17:11 437.445
JUGNU 26 May 15:21:37 15:25:56 20° 196° (SSW) 15:30:15 437.505
Oscar 19 26 May 15:30:24 15:35:26 52° 258° (WSW) 15:40:28 437.125/150
RS-15 26 May 15:45:23 15:55:06 33° 249° (WSW) 16:04:34 29.354- 29.394
AO-85 26 May 15:50:52 15:54:23 23° 70° (ENE) 15:58:05 145.980
BEESAT 26 May 15:52:36 15:56:00 19° 103° (ESE) 15:59:23 436.000
SRMSAT 26 May 15:57:28 16:03:16 57° 201° (SSW) 16:09:05 437.500
YUBILEINY 26 May 16:09:55 16:13:49 14° 267° (W) 16:17:45 435.215
AO-7 26 May 16:14:15 16:21:01 28° 73° (ENE) 16:27:44 .
ITAMSAT 1 26 May 16:31:24 16:36:03 34° 77° (ENE) 16:40:39 435.822/435.867
O/OREOS (USA 219) 26 May 16:36:15 16:40:40 65° 256° (WSW) 16:45:05 437.305
Gurwin Techsat 1B 26 May 16:46:15 16:48:45 13° 257° (WSW) 16:51:16 435.225
ITUPSAT 1 26 May 16:54:58 16:59:42 62° 282° (WNW) 17:04:28 437.325
JUGNU 26 May 17:14:18 17:15:47 11° 187° (S) 17:17:17 437.505
BEESAT 3 26 May 17:14:31 17:18:25 67° 69° (ENE) 17:22:14 437.485
MOZHAYETS 4 26 May 17:14:46 17:19:21 69° 282° (WNW) 17:23:57
BEESAT 26 May 17:29:52 17:33:29 22° 283° (WNW) 17:37:07 436.000
AO-85 26 May 17:31:27 17:34:35 18° 246° (WSW) 17:37:52 145.980
SRMSAT 26 May 17:48:08 17:52:41 23° 197° (SSW) 17:57:16 437.500
CUBESAT XI-V 26 May 17:59:47 18:04:14 50° 102° (ESE) 18:08:41 437.345
AO-7 26 May 18:05:55 18:13:25 39° 254° (WSW) 18:20:54 .
KKS-1 26 May 18:10:47 18:15:09 58° 103° (ESE) 18:19:32 437.445
ITAMSAT 1 26 May 18:12:28 18:15:13 15° 257° (WSW) 18:17:58 435.822/435.867
ISS 26 May 18:23:53 18:24:59 11° 126° (SE) 18:26:05 437.550
BEESAT 2 26 May 18:31:11 18:34:47 33° 249° (WSW) 18:38:21 435.950
STARS 26 May 18:42:44 18:47:02 54° 102° (ESE) 18:51:22 437.465
DOVE 4 26 May 18:50:22 18:54:43 30° 79° (E) 18:58:50 437.250
PCSat 26 May 19:00:33 19:05:45 49° 109° (ESE) 19:10:57 145.827
LilacSat-2 26 May 19:25:56 19:29:29 38° 78° (ENE) 19:33:01 437.200
Tancredo 1 26 May 19:30:06 19:32:42 25° 306° (NW) 19:35:17 437.200
SRMSAT 26 May 19:40:34 19:42:38 12° 188° (S) 19:44:43 437.500
ISS 26 May 19:58:41 20:01:17 21° 306° (NW) 20:03:53 437.550
XW-2D 26 May 20:00:26 20:04:07 54° 259° (W) 20:07:49 145.860 - 145.880
HO-68 26 May 20:02:52 20:07:56 21° 75° (ENE) 20:12:58 435.675
CUTE-I 26 May 20:02:55 20:08:16 86° 258° (WSW) 20:13:34 437.470
XW-2B 26 May 20:08:28 20:12:03 42° 259° (W) 20:15:38 145.730 - 145.750
NO-84 26 May 20:18:45 20:21:16 24° 238° (WSW) 20:23:41 435.350 FM
NUDT-PHONESAT 26 May 20:21:18 20:24:41 35° 259° (W) 20:28:05 437.300
XW-2F 26 May 20:21:37 20:24:50 27° 259° (W) 20:28:02 145.980 - 146.000
XW-2C 26 May 20:22:34 20:25:40 25° 259° (WSW) 20:28:48 145.795 - 145.815
DOVE 4 26 May 20:29:12 20:32:03 15° 257° (WSW) 20:34:48 437.250
KAITUO 1B 26 May 20:29:41 20:32:49 26° 259° (WSW) 20:35:59 145.475/437.950
PCSat 26 May 20:48:15 20:48:54 10° 290° (WNW) 20:49:33 145.827
JUGNU 26 May 20:52:22 20:55:59 17° 166° (SSE) 20:59:35 437.505
STRAND 1 26 May 20:52:35 20:57:39 61° 102° (ESE) 21:02:45 437.568
CUTE 1.7 + AOD 2 26 May 20:52:58 20:57:10 57° 79° (ENE) 21:01:21 437.475
XW-2A 26 May 20:55:17 20:58:32 50° 79° (ENE) 21:01:45 145.665 - 145.685
AAUSAT CUBESAT 2 26 May 21:08:45 21:11:46 19° 79° (ENE) 21:14:46 437.432
ZACube-1 26 May 21:20:11 21:21:19 11° 78° (ENE) 21:22:26 437.345
CUBEBUG 2 26 May 21:28:51 21:33:00 72° 79° (E) 21:37:06 437.445
UWE-3 26 May 21:39:41 21:43:41 50° 79° (ENE) 21:47:41 435.000/436.395/437.385
SEEDS 26 May 21:42:45 21:46:48 44° 259° (WSW) 21:50:50 437.485
HO-68 26 May 21:48:39 21:55:19 42° 256° (WSW) 22:01:59 435.675
Oscar 11 26 May 22:12:46 22:16:56 48° 78° (ENE) 22:21:05 .
SO-50 26 May 22:25:28 22:30:09 77° 291° (WNW) 22:34:45 436.795
M-CUBED/EXP-1 PRIME 26 May 22:34:02 22:36:57 29° 285° (WNW) 22:39:59 437.505
AO-73 26 May 22:39:26 22:43:25 48° 259° (WSW) 22:47:25 145.935
JUGNU 26 May 22:40:01 22:45:25 38° 160° (SSE) 22:50:49 437.505
AAUSAT CUBESAT 2 26 May 22:44:25 22:46:56 16° 258° (WSW) 22:49:28 437.432
ZACube-1 26 May 22:53:53 22:57:19 26° 258° (WSW) 23:00:47 437.345
DELFI C3 26 May 23:03:12 23:07:04 47° 79° (ENE) 23:10:55 145.870
EO-88 26 May 23:08:55 23:12:16 34° 79° (E) 23:15:35 145.990 - 145.960
SRMSAT 26 May 23:19:47 23:23:14 16° 167° (SSE) 23:26:42 437.500
TIGRISAT 26 May 23:22:43 23:27:09 43° 102° (ESE) 23:31:37 435.000
FO-29 26 May 23:35:14 23:42:33 74° 103° (ESE) 23:50:24 435.910
UNISAT 6 26 May 23:54:11 23:58:48 61° 282° (WNW) 00:03:27 437.425
LO-87 26 May 23:54:26 23:55:49 12° 79° (E) 23:57:12 145.935 - 145.965
PRISM 27 May 00:04:21 00:07:48 27° 282° (WNW) 00:11:16 437.425
ESTCUBE 1 27 May 00:06:14 00:06:58 10° 78° (ENE) 00:07:41 437.505/2401.250
JUGNU 27 May 00:28:36 00:34:28 78° 338° (NNW) 00:40:23 437.505
YUBILEINY 27 May 00:50:40 00:54:31 14° 93° (E) 00:58:22 435.215
VELOX 1 27 May 01:02:09 01:03:02 10° 78° (ENE) 01:03:55 145.980
SRMSAT 27 May 01:07:33 01:12:56 34° 161° (SSE) 01:18:20 437.500
NANOSAT C BR1 27 May 01:09:25 01:13:23 39° 102° (ESE) 01:17:22 145.865
POLYITAN 1 27 May 01:13:44 01:17:54 52° 102° (ESE) 01:22:05 437.675
RS-15 27 May 01:13:53 01:24:04 36° 111° (ESE) 01:34:36 29.354- 29.394
DUCHIFAT 1 27 May 01:20:00 01:24:06 48° 102° (ESE) 01:28:13 145.980
QB50P2 27 May 01:22:16 01:26:32 80° 100° (E) 01:30:50 145.880/145.840
FO-29 27 May 01:24:43 01:27:21 12° 282° (WNW) 01:30:02 435.910
LO-87 27 May 01:26:37 01:29:00 17° 258° (WSW) 01:31:21 145.935 - 145.965
AIST 2D 27 May 01:36:22 01:39:02 20° 281° (W) 01:41:43 435.315
BUGSAT 1 27 May 01:39:17 01:42:18 19° 102° (ESE) 01:45:22 437.445
ESTCUBE 1 27 May 01:39:22 01:43:29 34° 258° (WSW) 01:47:36 437.505/2401.250
EO-79 27 May 01:59:52 02:03:39 31° 282° (WNW) 02:07:28 145.935-145.965
JUGNU 27 May 02:18:33 02:23:37 29° 342° (NNW) 02:28:41 437.505
Oscar 19 27 May 02:25:55 02:30:01 24° 103° (ESE) 02:34:06 437.125/150
SPROUT 27 May 02:29:18 02:33:13 36° 258° (WSW) 02:37:05 437.525
VELOX 1 27 May 02:35:14 02:39:12 32° 258° (WSW) 02:43:09 145.980
50 SAT 27 May 02:39:11 02:42:33 48° 258° (WSW) 02:45:54 437.505
YUBILEINY 27 May 02:42:20 02:50:55 66° 273° (W) 02:59:32 435.215
SRMSAT 27 May 02:56:12 03:02:13 89° 339° (NNW) 03:08:15 437.500
UKube-1 27 May 03:02:26 03:06:46 85° 258° (WSW) 03:11:04 .
DX 1 27 May 03:10:29 03:14:34 38° 258° (WSW) 03:18:37 434.975-435.025
BUGSAT 1 27 May 03:14:46 03:17:23 16° 282° (WNW) 03:20:02 437.445
RS-15 27 May 03:25:25 03:36:02 42° 292° (WNW) 03:47:09 29.354- 29.394
Gurwin Techsat 1B 27 May 03:42:13 03:47:30 74° 283° (WNW) 03:52:49 435.225
ITUPSAT 1 27 May 03:42:15 03:44:25 13° 77° (ENE) 03:46:34 437.325
AO-85 27 May 04:03:29 04:07:59 42° 113° (ESE) 04:12:10 145.980
Oscar 19 27 May 04:05:24 04:09:03 20° 283° (WNW) 04:12:43 437.125/150
JUGNU 27 May 04:10:16 04:13:14 14° 349° (N) 04:16:13 437.505
BEESAT 27 May 04:13:29 04:17:50 36° 78° (ENE) 04:22:11 436.000
AO-7 27 May 04:39:24 04:47:18 47° 106° (ESE) 04:55:12 .
SRMSAT 27 May 04:46:10 04:51:31 33° 341° (NNW) 04:56:53 437.500
O/OREOS (USA 219) 27 May 04:47:27 04:51:41 37° 284° (WNW) 04:55:55 437.305
ITAMSAT 1 27 May 05:05:42 05:10:55 89° 279° (W) 05:16:10 435.822/435.867
BEESAT 3 27 May 05:06:05 05:09:54 66° 111° (ESE) 05:13:45 437.485
ITUPSAT 1 27 May 05:17:46 05:21:57 31° 257° (WSW) 05:26:08 437.325
MOZHAYETS 4 27 May 05:31:43 05:35:59 39° 258° (WSW) 05:40:15
BEESAT 27 May 05:54:08 05:55:19 11° 257° (WSW) 05:56:30 436.000
CUBESAT XI-V 27 May 06:17:44 06:22:27 89° 271° (W) 06:27:09 437.345
KKS-1 27 May 06:23:11 06:27:39 89° 68° (ENE) 06:32:04 437.445
BEESAT 2 27 May 06:24:08 06:27:36 31° 292° (WNW) 06:31:06 435.950
AO-7 27 May 06:33:27 06:39:40 24° 287° (WNW) 06:45:56 .
SRMSAT 27 May 06:37:50 06:41:14 15° 348° (NNW) 06:44:38 437.500
STARS 27 May 06:53:31 06:57:54 79° 78° (ENE) 07:02:14 437.465
Tancredo 1 27 May 06:58:21 07:01:19 53° 235° (SW) 07:04:18 437.200
CUTE-I 27 May 07:04:06 07:07:41 18° 103° (ESE) 07:11:17 437.470
DOVE 4 27 May 07:10:01 07:14:17 51° 102° (ESE) 07:18:49 437.250
LilacSat-2 27 May 07:20:22 07:23:47 31° 101° (ESE) 07:27:11 437.200
ISS 27 May 07:32:16 07:35:14 34° 235° (SW) 07:38:15 437.550
PCSat 27 May 07:36:38 07:41:52 52° 251° (WSW) 07:47:06 145.827
JUGNU 27 May 07:50:54 07:53:33 13° 10° (N) 07:56:11 437.505
XW-2D 27 May 07:53:55 07:57:43 71° 281° (W) 08:01:31 145.860 - 145.880
HO-68 27 May 07:55:10 07:59:30 17° 105° (ESE) 08:03:50 435.675
NO-84 27 May 08:00:46 08:04:46 43° 302° (WNW) 08:08:54 435.350 FM
XW-2B 27 May 08:01:57 08:05:40 54° 281° (W) 08:09:24 145.730 - 145.750
NUDT-PHONESAT 27 May 08:12:30 08:16:07 50° 281° (W) 08:19:45 437.300
XW-2F 27 May 08:14:34 08:18:02 35° 281° (WNW) 08:21:31 145.980 - 146.000
XW-2C 27 May 08:15:56 08:19:20 31° 281° (WNW) 08:22:44 145.795 - 145.815
KAITUO 1B 27 May 08:21:38 08:25:04 34° 281° (W) 08:28:30 145.475/437.950
XW-2A 27 May 08:38:13 08:41:05 25° 101° (E) 08:43:58 145.665 - 145.685
CUTE-I 27 May 08:42:53 08:47:27 29° 283° (WNW) 08:52:03 437.470
CUTE 1.7 + AOD 2 27 May 08:59:11 09:03:24 72° 102° (ESE) 09:07:35 437.475
AAUSAT CUBESAT 2 27 May 09:11:59 09:15:05 21° 102° (ESE) 09:18:12 437.432
STRAND 1 27 May 09:25:21 09:30:18 52° 257° (WSW) 09:35:13 437.568
ZACube-1 27 May 09:27:59 09:31:04 18° 102° (ESE) 09:34:07 437.345
JUGNU 27 May 09:38:20 09:43:16 26° 18° (NNE) 09:48:11 437.505
HO-68 27 May 09:39:59 09:46:51 51° 284° (WNW) 09:53:46 435.675
CUBEBUG 2 27 May 09:40:24 09:45:07 76° 280° (W) 09:49:53 437.445
SEEDS 27 May 09:48:04 09:51:54 37° 281° (WNW) 09:55:44 437.485
UWE-3 27 May 09:50:02 09:54:42 78° 102° (ESE) 09:59:21 435.000/436.395/437.385
SRMSAT 27 May 10:19:39 10:21:51 12° 8° (N) 10:24:03 437.500
Oscar 11 27 May 10:21:15 10:25:33 65° 102° (ESE) 10:29:49 .
M-CUBED/EXP-1 PRIME 27 May 10:32:15 10:36:35 41° 254° (WSW) 10:40:45 437.505
PRISM 27 May 10:34:03 10:35:24 11° 78° (ENE) 10:36:46 437.425
SO-50 27 May 10:38:16 10:42:31 40° 248° (WSW) 10:46:51 436.795
AAUSAT CUBESAT 2 27 May 10:48:14 10:50:16 14° 282° (WNW) 10:52:20 437.432
AO-73 27 May 10:48:37 10:52:49 37° 282° (WNW) 10:57:01 145.935
EO-88 27 May 10:59:00 11:02:00 24° 101° (ESE) 11:04:59 145.990 - 145.960
DELFI C3 27 May 11:01:27 11:05:10 43° 101° (ESE) 11:08:54 145.870
ZACube-1 27 May 11:03:35 11:07:03 21° 282° (WNW) 11:10:31 437.345
FO-29 27 May 11:11:24 11:16:19 33° 79° (ENE) 11:20:57 435.910
JUGNU 27 May 11:26:31 11:32:29 67° 21° (NNE) 11:38:25 437.505
TIGRISAT 27 May 11:36:00 11:40:12 64° 79° (E) 11:44:24 435.000
PRISM 27 May 12:06:56 12:10:24 26° 258° (WSW) 12:13:53 437.425
SRMSAT 27 May 12:07:08 12:11:47 23° 17° (NNE) 12:16:25 437.500
UNISAT 6 27 May 12:08:08 12:12:03 36° 258° (WSW) 12:15:58 437.425
ESTCUBE 1 27 May 12:18:09 12:20:55 16° 102° (ESE) 12:23:41 437.505/2401.250
EO-79 27 May 12:32:42 12:34:13 12° 78° (ENE) 12:35:44 145.935-145.965
RS-15 27 May 12:57:33 13:07:11 30° 67° (ENE) 13:16:21 29.354- 29.394
FO-29 27 May 12:58:12 13:01:05 14° 255° (WSW) 13:03:51 435.910
SPROUT 27 May 13:03:24 13:04:32 11° 102° (ESE) 13:05:40 437.525
VELOX 1 27 May 13:11:49 13:14:22 15° 103° (ESE) 13:16:55 145.980
LO-87 27 May 13:13:43 13:16:45 26° 281° (W) 13:19:49 145.935 - 145.965
NANOSAT C BR1 27 May 13:15:03 13:19:03 46° 79° (ENE) 13:23:03 145.865
JUGNU 27 May 13:15:52 13:21:34 44° 200° (SSW) 13:27:13 437.505
POLYITAN 1 27 May 13:19:58 13:24:07 64° 79° (ENE) 13:28:15 437.675
YUBILEINY 27 May 13:20:35 13:28:02 31° 87° (E) 13:35:26 435.215
AIST 2D 27 May 13:21:50 13:25:02 34° 259° (W) 13:28:13 435.315
DUCHIFAT 1 27 May 13:25:22 13:29:27 58° 78° (ENE) 13:33:31 145.980
QB50P2 27 May 13:28:36 13:32:49 82° 258° (WSW) 13:36:59 145.880/145.840
BUGSAT 1 27 May 13:42:25 13:45:24 20° 78° (ENE) 13:48:21 437.445
DX 1 27 May 13:46:38 13:48:06 11° 103° (ESE) 13:49:34 434.975-435.025
ESTCUBE 1 27 May 13:54:00 13:57:26 22° 282° (WNW) 14:00:53 437.505/2401.250
SRMSAT 27 May 13:55:21 14:01:12 59° 21° (NNE) 14:07:01 437.500
EO-79 27 May 14:06:15 14:09:43 25° 258° (WSW) 14:13:09 145.935-145.965
50 SAT 27 May 14:22:49 14:26:12 80° 104° (ESE) 14:29:35 437.505
